Showing default

SYMPHONIE 1, 7578

Orbit data source: Space-Track

SYMPHONIE 1, 7578 is an FR and DE payload satellite in GEO that was launched on Thu, 19 Dec 1974 UTC via a DELTA 2914 launch vehicle from the Air Force Eastern Test Range (AFETR). Payload-class satellites include a variety of spacecraft equipped with specific instruments for various scientific and technological missions. These include communications satellites like Starlink; space stations such as the ISS; scientific satellites like the Hubble; Earth observation satellites from companies like Planet Labs, Umbra, and HawkEye 360; GPS; miniature CubeSats for education and research; and military/defense satellites.

Loading next visibility...
Identifier
7578, 1974-101A
Orbit
GEO
Country
Flag of UnknownUnknown / FGER
Related business
Manufacturer
AELM/CIFAS
Mission
Civil Communications
Bus & Motor
SYMPHONIE, S400
Mass
400 kg wet, 240 kg dry
Launch date (UTC)
1974-12-19 (51 years ago)
Launch vehicle
DELTA 2914
Launch site
Air Force Eastern Test Range (AFETR)
Object type
Payload
Rocket body
Debris
Shape & HBR
Hex Cyl + 3 Pan, 3.4 m
Radar Cross Section
5.619 m², Large (>1 m²)

Expand to show TLE details & history
Last TLE update: 8 hours ago

TLE from 8 hours ago
0 SYMPHONIE 1
1 07578U 74101A   25258.23093991  .00000043  00000-0  00000-0 0  9995
2 07578   5.2844 280.4610 0002857 301.1498  93.2177  0.99944810114459
Epoch: 2025-09-15T05:32Z
TLE epoch observation values (Epoch: 2025-09-15T05:32:33.208Z)
Latitude
2.98872°
Longitude
-122.82237°
Altitude
35,878.403 km
Speed
3.071 km/s
True Right ascension
20h 59m 01s
True Declination
2° 59' 09"
Sunlit
Object was in daylight at epoch
Visualization orbit readout
Latitude
Unknown
Longitude
Unknown
Altitude
Unknown
Speed
Unknown
Apparent Right ascension
Unknown
Apparent Declination
Unknown
Sunlit
N/A
Visualization observer readout
Local Sidereal Time
06:20:02
Azimuth
Unknown
Elevation
Unknown
Doppler factor
Unknown
Orbital elements
Apogee altitude
35,891.636 km
Perigee altitude
35,867.49 km
Semi-major axis
42,257.7 km
Eccentricity
0.00029
Inclination
5.2844°
RAAN
280.461°
Arg. of periapsis
301.1498°
True anomaly
93.25039°
Mean anomaly
93.2177°
Eccentric anomaly
93.23404°
Mean motion
0.24985 °/min
Orbital period
1,440.85 mins
BSTAR
0
Loading maneuver chart data...
Computing Atmospheric mass density...
Loading historical data...
Loading historical data...
Loading historical data...
Loading historical data...
Loading historical data...
Loading historical data...
Loading historical data...

Documentation

Showing up to 5 results
|